TimeEDT,TemperatureF,Dew PointF,Humidity,Sea Level PressureIn,VisibilityMPH,Wind Direction,Wind SpeedMPH,Gust SpeedMPH,PrecipitationIn,Events,Conditions,WindDirDegrees,DateUTC
12:54 AM,62.1,52.0,70,29.97,10.0,North,8.1,-,N/A,,Clear,350,2013-06-14 04:54:00
1:54 AM,61.0,52.0,72,29.95,10.0,North,8.1,-,N/A,,Clear,350,2013-06-14 05:54:00
2:54 AM,60.1,52.0,75,29.94,10.0,North,10.4,-,N/A,,Clear,350,2013-06-14 06:54:00
3:54 AM,57.9,52.0,81,29.94,10.0,North,6.9,-,N/A,,Clear,350,2013-06-14 07:54:00
4:54 AM,57.0,53.1,87,29.96,10.0,NNW,4.6,-,N/A,,Clear,340,2013-06-14 08:54:00
5:54 AM,55.0,52.0,89,29.99,10.0,WNW,5.8,-,N/A,,Clear,300,2013-06-14 09:54:00
6:54 AM,57.0,53.1,87,30.00,10.0,North,8.1,-,N/A,,Clear,360,2013-06-14 10:54:00
7:54 AM,60.1,54.0,80,30.03,10.0,North,6.9,-,N/A,,Partly Cloudy,360,2013-06-14 11:54:00
8:54 AM,64.0,55.9,75,30.04,10.0,NNE,10.4,-,N/A,,Partly Cloudy,20,2013-06-14 12:54:00
9:54 AM,66.9,57.0,70,30.05,10.0,NNE,9.2,-,N/A,,Partly Cloudy,20,2013-06-14 13:54:00
10:54 AM,70.0,57.9,65,30.07,10.0,NNE,3.5,-,N/A,,Partly Cloudy,20,2013-06-14 14:54:00
11:54 AM,73.0,57.9,59,30.07,10.0,North,3.5,-,N/A,,Scattered Clouds,350,2013-06-14 15:54:00
12:54 PM,75.0,59.0,57,30.05,10.0,NW,8.1,-,N/A,,Mostly Cloudy,310,2013-06-14 16:54:00
1:54 PM,77.0,55.9,48,30.04,10.0,North,4.6,-,N/A,,Scattered Clouds,10,2013-06-14 17:54:00
2:54 PM,75.9,54.0,46,30.05,10.0,NE,3.5,-,N/A,,Scattered Clouds,50,2013-06-14 18:54:00
3:54 PM,75.9,54.0,46,30.04,10.0,ENE,3.5,-,N/A,,Scattered Clouds,70,2013-06-14 19:54:00
4:54 PM,77.0,55.0,47,30.04,10.0,Variable,5.8,-,N/A,,Scattered Clouds,0,2013-06-14 20:54:00
5:54 PM,79.0,55.0,44,30.03,10.0,NW,5.8,-,N/A,,Mostly Cloudy,310,2013-06-14 21:54:00
6:54 PM,77.0,55.0,47,30.02,10.0,NW,6.9,-,N/A,,Mostly Cloudy,310,2013-06-14 22:54:00
7:54 PM,75.0,55.0,50,30.01,10.0,NNW,6.9,-,N/A,,Mostly Cloudy,330,2013-06-14 23:54:00
8:54 PM,73.0,54.0,51,30.01,10.0,North,5.8,-,N/A,,Mostly Cloudy,10,2013-06-15 00:54:00
9:54 PM,72.0,54.0,53,30.01,10.0,ENE,5.8,-,N/A,,Mostly Cloudy,60,2013-06-15 01:54:00
10:54 PM,71.1,55.0,57,30.02,10.0,ENE,4.6,-,N/A,,Mostly Cloudy,70,2013-06-15 02:54:00
11:54 PM,70.0,55.9,61,30.03,10.0,East,3.5,-,N/A,,Mostly Cloudy,90,2013-06-15 03:54:00